Location: Charlottesville
(38.0290°N, 78.4770°W)
Time: 01:02:21
(UTC-04:00)

Envisat - Pass Details

Date: 10 October 2017
Orbit: 764 x 766 km, 98.2° (Epoch: 20 October)

Event Time Altitude Azimuth Distance (km) Brightness Sun altitude
Exits shadow 21:07:41 50° 347° (NNW) 976 3.6 -29.1°
Drops below altitude 10° 21:11:24 10° 347° (NNW) 2,308 5.8 -29.8°
Sets 21:13:42 0° 348° (NNW) 3,238 6.6 -30.3°
